Dansville, NY

9:50 PM EDT on May 27, 2018 (GMT -0400)
Dansville Municipal

Weather History for KDSV - November, 2012

Change the Weather History Date:

Wednesday, November 28, 2012

  Actual Average Record
Temperature  
Mean Temperature 34 °F -  
Max Temperature 37 °F 46 °F 68 °F (1988)
Min Temperature 32 °F 32 °F 12 °F (1951)
Degree Days  
Heating Degree Days 30    
Moisture  
Dew Point 24 °F    
Average Humidity 66    
Maximum Humidity 87    
Minimum Humidity 52    
Precipitation  
Precipitation 0.01 in - - ()
Sea Level Pressure  
Sea Level Pressure 30.24 in    
Wind  
Wind Speed 3 mph (SW)    
Max Wind Speed 7 mph    
Max Gust Speed 16 mph    
Visibility 8 miles    
Events Snow    
Averages and records for this station are not official NWS values.
T = Trace of Precipitation, MM = Missing Value Source: NWS Daily Summary

Daily Weather History Graph

Daily Weather History Graph

Search for Another Location

Airport or City:

Astronomy

Nov. 28, 2012 Rise Set
Actual Time 7:18 AM EST 4:39 PM EST
Civil Twilight 6:46 AM EST 5:10 PM EST
Nautical Twilight 6:12 AM EST 5:45 PM EST
Astronomical Twilight 5:38 AM EST 6:19 PM EST
Moon 4:52 PM EST 7:14 AM EST
Length of Visible Light 10h 23m
Length of Day
9h 21m
Full, 100% of the Moon is Illuminated
Nov 28
Full
Dec 6
Last Quarter
Dec 13
New
Dec 20
First Quarter
Dec 28
Full

Hourly Weather History & Observations

Time (EST) Temp. Windchill Dew Point Humidity Pressure Visibility Wind Dir Wind Speed Gust Speed Precip Events Conditions
12:54 AM 32.0 °F - 21.9 °F 66% 30.29 in 10.0 mi Calm Calm - N/A   Overcast
1:54 AM 33.1 °F 27.7 °F 21.0 °F 61% 30.28 in 10.0 mi South 5.8 mph - N/A   Overcast
2:54 AM 33.1 °F 27.7 °F 19.9 °F 59% 30.27 in 10.0 mi South 5.8 mph - N/A   Overcast
3:54 AM 33.1 °F 28.7 °F 19.9 °F 59% 30.25 in 10.0 mi Variable 4.6 mph - N/A   Overcast
4:54 AM 34.0 °F 29.8 °F 19.9 °F 56% 30.24 in 10.0 mi SSW 4.6 mph - N/A   Overcast
5:54 AM 34.0 °F 28.8 °F 19.9 °F 56% 30.25 in 10.0 mi SW 5.8 mph - N/A   Overcast
6:54 AM 34.0 °F 29.8 °F 19.9 °F 56% 30.25 in 10.0 mi Variable 4.6 mph - N/A   Overcast
7:54 AM 34.0 °F 31.0 °F 19.0 °F 54% 30.26 in 10.0 mi Variable 3.5 mph - N/A   Overcast
8:54 AM 34.0 °F 28.0 °F 19.0 °F 54% 30.25 in 10.0 mi South 6.9 mph - N/A   Mostly Cloudy
9:54 AM 35.1 °F 30.1 °F 19.0 °F 52% 30.24 in 10.0 mi SSW 5.8 mph - N/A   Overcast
10:54 AM 36.0 °F 32.1 °F 21.0 °F 55% 30.24 in 10.0 mi SW 4.6 mph - N/A   Mostly Cloudy
11:54 AM 35.1 °F 31.0 °F 24.1 °F 64% 30.24 in 8.0 mi South 4.6 mph - 0.00 in Snow Light Snow
12:54 PM 37.0 °F 32.4 °F 24.1 °F 59% 30.22 in 10.0 mi Variable 5.8 mph - 0.00 in   Overcast
1:54 PM 37.0 °F 32.4 °F 26.1 °F 65% 30.21 in 9.0 mi Variable 5.8 mph 16.1 mph 0.00 in Snow Light Snow
2:09 PM 35.6 °F 30.7 °F 28.4 °F 75% 30.16 in 2.5 mi West 5.8 mph - 0.00 in Snow Light Snow
2:41 PM 33.8 °F - 28.4 °F 81% 30.17 in 1.8 mi Calm Calm - 0.00 in Snow Light Snow
2:50 PM 33.8 °F - 28.4 °F 81% 30.17 in 2.5 mi Calm Calm - 0.00 in Snow Light Snow
2:54 PM 34.0 °F - 30.0 °F 85% 30.22 in 2.5 mi Calm Calm - 0.00 in Snow Light Snow
3:07 PM 33.8 °F - 30.2 °F 87% 30.17 in 3.0 mi Calm Calm - 0.00 in Snow Light Snow
3:14 PM 33.8 °F - 28.4 °F 81% 30.17 in 5.0 mi Calm Calm - 0.00 in Snow Light Snow
3:54 PM 35.1 °F 32.2 °F 28.0 °F 76% 30.24 in 4.0 mi West 3.5 mph - 0.01 in Snow Light Snow
4:32 PM 35.6 °F - 28.4 °F 75% 30.19 in 9.0 mi Calm Calm - 0.00 in   Overcast
4:54 PM 35.1 °F - 27.0 °F 72% 30.25 in 10.0 mi Calm Calm - 0.00 in   Overcast
5:54 PM 35.1 °F 31.0 °F 25.0 °F 67% 30.27 in 10.0 mi WSW 4.6 mph - N/A   Overcast
6:54 PM 35.1 °F 31.0 °F 23.0 °F 61% 30.28 in 10.0 mi West 4.6 mph - N/A   Overcast
7:54 PM 35.1 °F 32.2 °F 21.9 °F 59% 30.28 in 10.0 mi WNW 3.5 mph - N/A   Overcast
8:54 PM 35.1 °F - 24.1 °F 64% 30.28 in 10.0 mi Calm Calm - N/A   Overcast
9:54 PM 35.1 °F - 24.1 °F 64% 30.29 in 10.0 mi Calm Calm - N/A   Overcast
10:54 PM 35.1 °F - 21.9 °F 59% 30.29 in 10.0 mi Calm Calm - N/A   Overcast
11:54 PM 33.1 °F - 23.0 °F 66% 30.30 in 10.0 mi Calm Calm - N/A   Overcast